DLH2EC EDDH-EDDL

Flight info

Callsign DLH2EC
Flight time 0h 40m
Altitude 28000
Route HABFU1G/33 HABFU Y348 MAWEQ Z718 OSNAD M170 HMM T851 HALME HALME1A
Aircraft A20N/M-SDE2E3FGHIRWXY/LB1

Departure

Time 2026-05-04 21:47
Airport Hamburg Helmut Schmidt Airport (EDDH)

Arrival

Time 2026-05-04 22:27
Airport Düsseldorf Airport (EDDL)
Time Latitude Longitude Altitude Speed Heading
2026-05-04 21:28 53.62892 10.00214 45 ft 0 kts 123°
2026-05-04 21:39 53.62899 10.00194 42 ft 2 kts 126°
2026-05-04 21:39 53.62909 10.00172 44 ft 2 kts 128°
2026-05-04 21:39 53.62920 10.00151 45 ft 2 kts 133°
2026-05-04 21:39 53.62931 10.00131 43 ft 2 kts 139°
2026-05-04 21:40 53.62944 10.00114 44 ft 2 kts 149°
2026-05-04 21:40 53.62959 10.00101 43 ft 2 kts 163°
2026-05-04 21:40 53.62975 10.00096 42 ft 2 kts 183°
2026-05-04 21:40 53.62992 10.00101 46 ft 2 kts 202°
2026-05-04 21:41 53.63002 10.00110 44 ft 1 kts 211°
2026-05-04 21:41 53.63003 10.00111 44 ft 0 kts 211°
2026-05-04 21:42 53.62982 10.00088 41 ft 7 kts 213°
2026-05-04 21:43 53.62931 10.00023 45 ft 11 kts 226°
2026-05-04 21:43 53.62901 9.99923 45 ft 7 kts 243°
2026-05-04 21:43 53.62897 9.99909 45 ft 3 kts 243°
2026-05-04 21:43 53.62881 9.99859 46 ft 6 kts 243°
2026-05-04 21:44 53.62863 9.99776 45 ft 9 kts 264°
2026-05-04 21:44 53.62892 9.99722 47 ft 0 kts 329°
2026-05-04 21:44 53.62899 9.99716 47 ft 0 kts 332°
2026-05-04 21:46 53.63123 9.99522 47 ft 71 kts 332°
2026-05-04 21:46 53.63739 9.98989 47 ft 125 kts 333°
2026-05-04 21:47 53.64608 9.98245 303 ft 141 kts 333°
2026-05-04 21:47 53.65465 9.97546 936 ft 138 kts 334°
2026-05-04 21:47 53.66360 9.96790 1413 ft 151 kts 333°
2026-05-04 21:47 53.67322 9.95954 1896 ft 162 kts 332°
2026-05-04 21:48 53.68383 9.95036 2283 ft 180 kts 331°
2026-05-04 21:48 53.69563 9.94019 2687 ft 201 kts 331°
2026-05-04 21:48 53.70770 9.92667 3176 ft 214 kts 309°
2026-05-04 21:48 53.71398 9.90443 3971 ft 218 kts 279°
2026-05-04 21:49 53.71277 9.87952 4351 ft 214 kts 252°
2026-05-04 21:49 53.70774 9.85455 4661 ft 238 kts 250°
2026-05-04 21:49 53.70194 9.82717 5386 ft 254 kts 250°
2026-05-04 21:49 53.69605 9.79887 6450 ft 257 kts 250°
2026-05-04 21:50 53.69021 9.77009 7457 ft 261 kts 251°
2026-05-04 21:50 53.68438 9.74090 8498 ft 264 kts 251°
2026-05-04 21:50 53.67855 9.71132 9540 ft 267 kts 251°
2026-05-04 21:50 53.67261 9.68111 10427 ft 276 kts 251°
2026-05-04 21:51 53.66638 9.64951 10820 ft 300 kts 251°
2026-05-04 21:51 53.65924 9.61496 11237 ft 321 kts 246°
2026-05-04 21:51 53.64717 9.58307 12033 ft 327 kts 229°
2026-05-04 21:51 53.62962 9.55831 12935 ft 334 kts 212°
2026-05-04 21:52 53.60905 9.53912 13782 ft 340 kts 210°
2026-05-04 21:52 53.58806 9.52003 14570 ft 344 kts 210°
2026-05-04 21:52 53.56684 9.50077 15354 ft 348 kts 210°
2026-05-04 21:52 53.54541 9.48127 16138 ft 352 kts 210°
2026-05-04 21:53 53.52374 9.46152 16892 ft 357 kts 210°
2026-05-04 21:53 53.50178 9.44149 17670 ft 361 kts 211°
2026-05-04 21:53 53.47959 9.42127 18380 ft 365 kts 211°
2026-05-04 21:53 53.45715 9.40084 19093 ft 367 kts 210°
2026-05-04 21:54 53.43487 9.38057 19797 ft 369 kts 210°
2026-05-04 21:54 53.41223 9.36001 20506 ft 371 kts 210°
2026-05-04 21:54 53.38944 9.33933 21193 ft 373 kts 210°
2026-05-04 21:54 53.36655 9.31859 21896 ft 375 kts 210°
2026-05-04 21:55 53.34333 9.29818 22566 ft 379 kts 206°
2026-05-04 21:55 53.31881 9.28169 23234 ft 382 kts 200°
2026-05-04 21:55 53.29291 9.27013 23856 ft 386 kts 193°
2026-05-04 21:55 53.26637 9.26233 24409 ft 389 kts 192°
2026-05-04 21:56 53.23963 9.25458 24942 ft 391 kts 193°
2026-05-04 21:56 53.21276 9.24669 25479 ft 393 kts 193°
2026-05-04 21:56 53.18572 9.23868 26003 ft 395 kts 193°
2026-05-04 21:56 53.15852 9.23061 26506 ft 398 kts 193°
2026-05-04 21:57 53.13120 9.22250 27002 ft 400 kts 194°
2026-05-04 21:57 53.10405 9.21446 27490 ft 402 kts 194°
2026-05-04 21:57 53.07603 9.20617 27757 ft 405 kts 194°
2026-05-04 21:57 53.04865 9.19809 27866 ft 405 kts 194°
2026-05-04 21:58 53.02095 9.18992 27977 ft 405 kts 194°
2026-05-04 21:58 52.99321 9.18175 27987 ft 405 kts 194°
2026-05-04 21:58 52.96577 9.17181 27985 ft 402 kts 199°
2026-05-04 21:58 52.93935 9.15710 27986 ft 399 kts 205°
2026-05-04 21:59 52.91425 9.13784 27984 ft 397 kts 211°
2026-05-04 21:59 52.88997 9.11620 27980 ft 396 kts 211°
2026-05-04 21:59 52.86563 9.09460 27984 ft 396 kts 211°
2026-05-04 21:59 52.84158 9.07341 27982 ft 396 kts 211°
2026-05-04 22:00 52.81722 9.05204 27978 ft 396 kts 210°
2026-05-04 22:00 52.79286 9.03073 27978 ft 396 kts 210°
2026-05-04 22:00 52.76849 9.00946 27978 ft 396 kts 210°
2026-05-04 22:00 52.74513 8.98908 27972 ft 396 kts 210°
2026-05-04 22:01 52.71987 8.96709 27973 ft 395 kts 210°
2026-05-04 22:01 52.69553 8.94591 27968 ft 395 kts 210°
2026-05-04 22:01 52.67120 8.92477 27967 ft 395 kts 210°
2026-05-04 22:01 52.64690 8.90368 27968 ft 395 kts 210°
2026-05-04 22:02 52.62256 8.88258 27971 ft 395 kts 210°
2026-05-04 22:02 52.59855 8.86179 27969 ft 395 kts 210°
2026-05-04 22:02 52.57420 8.84074 27971 ft 395 kts 210°
2026-05-04 22:02 52.54987 8.81973 27971 ft 395 kts 210°
2026-05-04 22:03 52.52546 8.79867 27970 ft 395 kts 210°
2026-05-04 22:03 52.50107 8.77766 27969 ft 395 kts 210°
2026-05-04 22:03 52.47671 8.75671 27967 ft 396 kts 210°
2026-05-04 22:03 52.45229 8.73573 27970 ft 396 kts 210°
2026-05-04 22:04 52.42783 8.71473 27967 ft 395 kts 210°
2026-05-04 22:04 52.40529 8.69033 27967 ft 394 kts 221°
2026-05-04 22:04 52.38569 8.65903 27969 ft 394 kts 226°
2026-05-04 22:04 52.36659 8.62683 27967 ft 393 kts 226°
2026-05-04 22:05 52.34757 8.59448 27806 ft 394 kts 226°
2026-05-04 22:05 52.32869 8.56216 27544 ft 392 kts 226°
2026-05-04 22:05 52.30985 8.52986 27284 ft 392 kts 226°
2026-05-04 22:05 52.29110 8.49771 27025 ft 391 kts 226°
2026-05-04 22:06 52.27226 8.46544 26770 ft 391 kts 226°
2026-05-04 22:06 52.25364 8.43361 26522 ft 391 kts 226°
2026-05-04 22:06 52.23484 8.40152 26263 ft 390 kts 226°
2026-05-04 22:06 52.21605 8.36951 26013 ft 390 kts 226°
2026-05-04 22:07 52.19729 8.33757 25763 ft 389 kts 226°
2026-05-04 22:07 52.17855 8.30572 25524 ft 387 kts 226°
2026-05-04 22:07 52.15989 8.27402 25212 ft 388 kts 226°
2026-05-04 22:07 52.14121 8.24235 24859 ft 388 kts 226°
2026-05-04 22:08 52.12251 8.21069 24499 ft 387 kts 226°
2026-05-04 22:08 52.10461 8.18042 24162 ft 386 kts 225°
2026-05-04 22:08 52.08571 8.14850 23759 ft 386 kts 225°
2026-05-04 22:08 52.06736 8.11754 23320 ft 385 kts 225°
2026-05-04 22:09 52.04884 8.08634 22738 ft 379 kts 225°
2026-05-04 22:09 52.03068 8.05578 22188 ft 374 kts 225°
2026-05-04 22:09 52.01249 8.02520 21628 ft 375 kts 225°
2026-05-04 22:09 51.99459 7.99516 21087 ft 364 kts 225°
2026-05-04 22:10 51.97727 7.96613 20551 ft 352 kts 225°
2026-05-04 22:10 51.96049 7.93803 20036 ft 342 kts 225°
2026-05-04 22:10 51.94417 7.91073 19521 ft 332 kts 225°
2026-05-04 22:10 51.92841 7.88440 19024 ft 324 kts 225°
2026-05-04 22:11 51.91290 7.85851 18526 ft 317 kts 226°
2026-05-04 22:11 51.89767 7.83313 18000 ft 311 kts 225°
2026-05-04 22:11 51.88269 7.80817 17375 ft 307 kts 225°
2026-05-04 22:11 51.86786 7.78350 16770 ft 303 kts 225°
2026-05-04 22:12 51.85311 7.75896 16180 ft 304 kts 225°
2026-05-04 22:12 51.83836 7.73446 15605 ft 303 kts 225°
2026-05-04 22:12 51.82369 7.71012 15038 ft 302 kts 225°
2026-05-04 22:12 51.80908 7.68591 14478 ft 300 kts 225°
2026-05-04 22:13 51.79456 7.66187 13933 ft 298 kts 225°
2026-05-04 22:13 51.78009 7.63794 13332 ft 296 kts 225°
2026-05-04 22:13 51.76590 7.61451 12738 ft 295 kts 225°
2026-05-04 22:13 51.75162 7.59093 12140 ft 293 kts 225°
2026-05-04 22:14 51.73736 7.56742 11563 ft 292 kts 225°
2026-05-04 22:14 51.72316 7.54402 10993 ft 291 kts 225°
2026-05-04 22:14 51.71378 7.52858 10617 ft 290 kts 225°
2026-05-04 22:14 51.69973 7.50547 10059 ft 288 kts 225°
2026-05-04 22:15 51.68574 7.48247 9468 ft 285 kts 225°
2026-05-04 22:15 51.67196 7.45985 8864 ft 281 kts 225°
2026-05-04 22:15 51.65831 7.43746 8261 ft 277 kts 225°
2026-05-04 22:15 51.64488 7.41544 7684 ft 273 kts 225°
2026-05-04 22:16 51.63177 7.39397 7340 ft 261 kts 225°
2026-05-04 22:16 51.61924 7.37347 7231 ft 256 kts 225°
2026-05-04 22:16 51.60716 7.35371 7116 ft 239 kts 225°
2026-05-04 22:16 51.59590 7.33530 6991 ft 222 kts 224°
2026-05-04 22:17 51.58529 7.31798 6712 ft 216 kts 224°
2026-05-04 22:17 51.57463 7.30062 6227 ft 219 kts 224°
2026-05-04 22:17 51.56387 7.28312 5719 ft 221 kts 224°
2026-05-04 22:17 51.55296 7.26537 5215 ft 223 kts 225°
2026-05-04 22:18 51.54198 7.24753 4707 ft 225 kts 225°
2026-05-04 22:18 51.53099 7.22968 4303 ft 221 kts 225°
2026-05-04 22:18 51.52067 7.21289 4151 ft 208 kts 225°
2026-05-04 22:18 51.51043 7.19627 4011 ft 209 kts 225°
2026-05-04 22:19 51.50015 7.17958 3993 ft 210 kts 225°
2026-05-04 22:19 51.48992 7.16298 3872 ft 209 kts 225°
2026-05-04 22:19 51.48659 7.15759 3847 ft 209 kts 225°
2026-05-04 22:19 51.47900 7.14526 3796 ft 202 kts 225°
2026-05-04 22:20 51.47005 7.13077 3721 ft 192 kts 225°
2026-05-04 22:20 51.46086 7.11589 3618 ft 183 kts 225°
2026-05-04 22:20 51.45200 7.10156 3536 ft 186 kts 225°
2026-05-04 22:20 51.44287 7.08679 3412 ft 184 kts 225°
2026-05-04 22:21 51.43333 7.07321 3273 ft 184 kts 222°
2026-05-04 22:21 51.42440 7.05859 3149 ft 183 kts 229°
2026-05-04 22:21 51.41650 7.04260 3013 ft 182 kts 233°
2026-05-04 22:21 51.40903 7.02649 3004 ft 183 kts 233°
2026-05-04 22:22 51.40142 7.01032 3013 ft 178 kts 233°
2026-05-04 22:22 51.39439 6.99534 3002 ft 158 kts 233°
2026-05-04 22:22 51.38817 6.98209 2994 ft 140 kts 232°
2026-05-04 22:22 51.38236 6.96974 2983 ft 141 kts 233°
2026-05-04 22:23 51.37657 6.95744 2823 ft 135 kts 233°
2026-05-04 22:23 51.37086 6.94531 2653 ft 138 kts 233°
2026-05-04 22:23 51.36517 6.93319 2482 ft 131 kts 233°
2026-05-04 22:23 51.35986 6.92192 2309 ft 126 kts 232°
2026-05-04 22:24 51.35456 6.91067 2141 ft 127 kts 232°
2026-05-04 22:24 51.34925 6.89938 1971 ft 127 kts 232°
2026-05-04 22:24 51.34396 6.88814 1804 ft 126 kts 232°
2026-05-04 22:24 51.33865 6.87687 1631 ft 127 kts 232°
2026-05-04 22:25 51.33336 6.86565 1452 ft 126 kts 232°
2026-05-04 22:25 51.32807 6.85443 1279 ft 127 kts 232°
2026-05-04 22:25 51.32271 6.84305 1100 ft 129 kts 232°
2026-05-04 22:25 51.31733 6.83163 924 ft 129 kts 232°
2026-05-04 22:26 51.31197 6.82027 744 ft 129 kts 232°
2026-05-04 22:26 51.30655 6.80879 580 ft 130 kts 232°
2026-05-04 22:26 51.30105 6.79715 410 ft 132 kts 232°
2026-05-04 22:26 51.29557 6.78547 234 ft 130 kts 232°
2026-05-04 22:27 51.29018 6.77408 137 ft 122 kts 232°
2026-05-04 22:27 51.28627 6.76601 134 ft 50 kts 232°
2026-05-04 22:27 51.28439 6.76208 131 ft 19 kts 232°
2026-05-04 22:27 51.28358 6.76063 133 ft 18 kts 214°
2026-05-04 22:28 51.28306 6.76038 134 ft 0 kts 198°
2026-05-04 22:28 51.28273 6.76041 135 ft 7 kts 175°
2026-05-04 22:28 51.28236 6.76051 136 ft 0 kts 167°
2026-05-04 22:29 51.28222 6.76059 136 ft 4 kts 160°
2026-05-04 22:29 51.28192 6.76091 136 ft 5 kts 135°
2026-05-04 22:29 51.28193 6.76153 136 ft 7 kts 69°
2026-05-04 22:29 51.28229 6.76230 136 ft 10 kts 51°
2026-05-04 22:30 51.28273 6.76324 136 ft 5 kts 53°
2026-05-04 22:30 51.28301 6.76386 136 ft 9 kts 53°
2026-05-04 22:30 51.28317 6.76468 136 ft 7 kts 110°
2026-05-04 22:30 51.28278 6.76494 136 ft 6 kts 202°
2026-05-04 22:31 51.28244 6.76467 137 ft 1 kts 159°
2026-05-04 22:31 51.28225 6.76487 137 ft 5 kts 160°
2026-05-04 22:31 51.28203 6.76513 137 ft 1 kts 142°
2026-05-04 22:31 51.28198 6.76523 137 ft 0 kts 129°
2026-05-04 22:32 51.28197 6.76527 137 ft 1 kts 115°
2026-05-04 22:32 51.28194 6.76553 137 ft 1 kts 99°
2026-05-04 22:32 51.28192 6.76570 137 ft 0 kts 94°
2026-05-04 22:32 51.28192 6.76571 137 ft 0 kts 94°